Weather History for Beaufort MCAS, SC

Change the Weather History Date:

Sunday, January 13, 2013

  Actual Average Record
Temperature  
Mean Temperature 62 °F -  
Max Temperature 72 °F 56 °F 80 °F (1950)
Min Temperature 52 °F 37 °F 17 °F (1962)
Degree Days  
Heating Degree Days 3    
Growing Degree Days 12 (Base 50)    
Moisture  
Dew Point 56 °F    
Average Humidity 92    
Maximum Humidity 100    
Minimum Humidity 66    
Precipitation  
Precipitation 0.01 in - - ()
Sea Level Pressure  
Sea Level Pressure 30.14 in    
Wind  
Wind Speed 1 mph (South)    
Max Wind Speed 8 mph    
Max Gust Speed -    
Visibility 4 miles    
Events Fog , Rain    
Averages and records for this station are not official NWS values.
T = Trace of Precipitation, MM = Missing Value Source: NWS Daily Summary

Daily Weather History Graph

Daily Weather History Graph

Search for Another Location

Airport:

Trip Planner

Search our weather history database for the weather conditions in past years. The results will help you decide how hot, cold, wet, or windy it might be!

Date:

Astronomy

Jan. 13, 2013 Rise Set
Actual Time 7:25 AM EST 5:38 PM EST
Civil Twilight 6:58 AM EST 6:05 PM EST
Nautical Twilight 6:28 AM EST 6:35 PM EST
Astronomical Twilight 5:58 AM EST 7:05 PM EST
Moon 8:31 AM EST (1/13) 8:04 PM EST (1/13)
Length of Visible Light 11h 06m
Length of Day
10h 13m
Waxing Crescent, 5% of the Moon is Illuminated
Jan 13
Waxing Crescent
Jan 18
First Quarter
Jan 26
Full
Feb 3
Last Quarter
Feb 10
New

Hourly Weather History & Observations

Time (EST) Temp. Dew Point Humidity Pressure Visibility Wind Dir Wind Speed Gust Speed Precip Events Conditions
12:45 AM 57.2 °F 55.4 °F 94% 30.14 in 2.5 mi Calm Calm - N/A   Partly Cloudy
12:56 AM 55.9 °F 54.0 °F 93% 30.15 in 1.0 mi WSW 3.5 mph - N/A   Mist
1:05 AM 55.4 °F 55.4 °F 100% 30.14 in 1.8 mi SW 3.5 mph - N/A   Scattered Clouds
1:17 AM 57.2 °F 55.4 °F 94% 30.14 in 3.0 mi Calm Calm - N/A   Partly Cloudy
1:56 AM 57.0 °F 55.0 °F 93% 30.13 in 6.0 mi Calm Calm - N/A   Clear
2:56 AM 57.9 °F 55.9 °F 93% 30.13 in 6.0 mi South 3.5 mph - N/A   Clear
3:23 AM 55.4 °F 55.4 °F 100% 30.12 in 1.8 mi Calm Calm - N/A   Clear
3:26 AM 55.4 °F 55.4 °F 100% 30.12 in 1.0 mi South 3.5 mph - N/A   Clear
3:43 AM 55.4 °F 53.6 °F 94% 30.12 in 1.8 mi Calm Calm - N/A   Partly Cloudy
3:45 AM 55.4 °F 53.6 °F 94% 30.12 in 1.0 mi Calm Calm - N/A   Mist
3:48 AM 55.4 °F 53.6 °F 94% 30.12 in 0.5 mi Calm Calm - N/A Fog Fog
3:56 AM 54.0 °F 52.0 °F 93% 30.12 in 0.5 mi Calm Calm - N/A Fog Fog
4:03 AM 53.6 °F 51.8 °F 94% 30.11 in 0.2 mi Calm Calm - N/A Fog Fog
4:13 AM 53.6 °F 53.6 °F 100% 30.11 in 0.8 mi Calm Calm - N/A   Mist
4:21 AM 53.6 °F 51.8 °F 94% 30.11 in 1.2 mi Calm Calm - N/A   Mostly Cloudy
4:26 AM 53.6 °F 53.6 °F 100% 30.11 in 3.0 mi Calm Calm - N/A   Overcast
4:32 AM 55.4 °F 53.6 °F 94% 30.10 in 1.8 mi South 3.5 mph - N/A   Overcast
4:37 AM 55.4 °F 53.6 °F 94% 30.10 in 1.0 mi Calm Calm - N/A   Mist
4:40 AM 55.4 °F 53.6 °F 94% 30.10 in 0.5 mi South 3.5 mph - N/A Fog Fog
4:56 AM 52.0 °F 51.1 °F 97% 30.11 in 0.5 mi Calm Calm - N/A Fog Fog
5:27 AM 53.6 °F 51.8 °F 94% 30.11 in 0.2 mi Calm Calm - N/A Fog Fog
5:56 AM 53.1 °F 52.0 °F 96% 30.13 in 0.2 mi Calm Calm - N/A Fog Fog
6:09 AM 53.6 °F 51.8 °F 94% 30.12 in 0.5 mi Calm Calm - N/A Fog Fog
6:17 AM 53.6 °F 53.6 °F 100% 30.12 in 0.2 mi Calm Calm - N/A Fog Fog
6:30 AM 53.6 °F 53.6 °F 100% 30.13 in 0.2 mi Calm Calm - N/A Fog Fog
6:45 AM 53.6 °F 53.6 °F 100% 30.14 in 0.2 mi Calm Calm - 0.01 in Fog Fog
6:55 AM 53.1 °F 52.0 °F 96% 30.14 in 0.8 mi Calm Calm - 0.01 in   Mist
7:07 AM 53.6 °F 51.8 °F 94% 30.14 in 0.2 mi Calm Calm - N/A Fog Fog
7:30 AM 53.6 °F 51.8 °F 94% 30.15 in 0.2 mi Calm Calm - 0.00 in Fog , Rain Light Rain
7:40 AM 53.6 °F 51.8 °F 94% 30.15 in 0.2 mi Calm Calm - 0.00 in Fog , Rain Light Rain
7:56 AM 54.0 °F 53.1 °F 97% 30.16 in 0.2 mi Calm Calm - 0.00 in Fog , Rain Light Rain
8:16 AM 55.4 °F 53.6 °F 94% 30.17 in 0.8 mi Calm Calm - 0.00 in Rain Light Rain
8:34 AM 55.4 °F 55.4 °F 100% 30.17 in 0.5 mi Calm Calm - 0.00 in Fog , Rain Light Rain
8:47 AM 57.2 °F 55.4 °F 94% 30.17 in 0.8 mi Calm Calm - 0.00 in   Mist
8:56 AM 57.9 °F 55.9 °F 93% 30.18 in 0.2 mi Calm Calm - 0.00 in Fog Fog
9:26 AM 59.0 °F 57.2 °F 94% 30.19 in 0.8 mi Calm Calm - N/A   Mist
9:34 AM 60.8 °F 57.2 °F 88% 30.19 in 2.0 mi Calm Calm - N/A   Mostly Cloudy
9:42 AM 60.8 °F 57.2 °F 88% 30.19 in 9.0 mi Calm Calm - N/A   Scattered Clouds
9:56 AM 60.1 °F 59.0 °F 96% 30.19 in 1.0 mi Calm Calm - N/A   Mist
10:04 AM 60.8 °F 59.0 °F 94% 30.18 in 2.0 mi Calm Calm - N/A   Partly Cloudy
10:11 AM 60.8 °F 60.8 °F 100% 30.18 in 10.0 mi Calm Calm - N/A   Partly Cloudy
10:56 AM 70.0 °F 62.1 °F 76% 30.17 in 10.0 mi SSW 5.8 mph - N/A   Clear
11:56 AM 69.1 °F 61.0 °F 75% 30.16 in 10.0 mi South 3.5 mph - N/A   Clear
12:56 PM 71.1 °F 61.0 °F 70% 30.12 in 10.0 mi SSE 5.8 mph - N/A   Clear
1:56 PM 72.0 °F 60.1 °F 66% 30.10 in 10.0 mi South 5.8 mph - N/A   Clear
2:56 PM 72.0 °F 61.0 °F 68% 30.11 in 10.0 mi South 5.8 mph - N/A   Clear
3:56 PM 71.1 °F 62.1 °F 73% 30.13 in 10.0 mi South 4.6 mph - N/A   Clear
4:56 PM 68.0 °F 61.0 °F 78% 30.13 in 10.0 mi South 5.8 mph - N/A   Clear
5:56 PM 64.9 °F 60.1 °F 84% 30.13 in 10.0 mi South 4.6 mph - N/A   Clear
6:56 PM 63.0 °F 60.1 °F 90% 30.13 in 10.0 mi South 8.1 mph - N/A   Clear
7:56 PM 62.1 °F 59.0 °F 90% 30.13 in 10.0 mi South 4.6 mph - N/A   Clear
8:56 PM 62.1 °F 60.1 °F 93% 30.13 in 10.0 mi South 3.5 mph - N/A   Clear
9:56 PM 61.0 °F 59.0 °F 93% 30.15 in 10.0 mi South 3.5 mph - N/A   Clear
10:56 PM 60.1 °F 57.9 °F 93% 30.16 in 8.0 mi SW 3.5 mph - N/A   Clear
11:56 PM 61.0 °F 59.0 °F 93% 30.16 in 10.0 mi Calm Calm - N/A   Clear